Left ArrowRight Arrow

Hourly Observations for June 16, 2024

Temp ( °F °C ) Dew Point ( °F °C ) Humidity (%) Winds ( mph kmh ) Pressure ( in mb ) Visibility ( mi km ) Precip ( " mm )
12:57 am 00:57 Cloudy 81 27.2 75 23.9 82 82 ENE 12 19 30.05 1018 10 16 0.00 0.00
1:57 am 01:57 Cloudy 81 27.2 74 23.3 79 79 ENE 12 19 30.03 1017 10 16 0.00 0.00
2:57 am 02:57 Cloudy 81 27.2 71 21.7 72 72 ENE 12 19 30.02 1017 10 16 0.00 0.00
3:57 am 03:57 Mostly Clear 80 26.7 74 23.3 82 82 ENE 9 15 30.02 1017 10 16 0.00 0.00
4:57 am 04:57 Mostly Cloudy 81 27.2 74 23.3 79 79 ENE 12 19 30.03 1017 10 16 0.00 0.00
5:57 am 05:57 Cloudy 81 27.2 72 22.2 74 74 ENE 12 19 30.03 1017 10 16 0.00 0.00
6:57 am 06:57 Partly Cloudy 82 27.8 72 22.2 72 72 E 13 20 30.05 1018 10 16 0.00 0.00
7:57 am 07:57 Partly Cloudy 83 28.3 71 21.7 67 67 E 13 20 30.06 1018 10 16 0.00 0.00
8:57 am 08:57 Mostly Sunny 85 29.4 73 22.8 68 68 ENE 12 19 30.06 1018 10 16 0.00 0.00
9:57 am 09:57 Partly Cloudy 86 30 72 22.2 63 63 ENE 13 20 30.06 1018 10 16 0.00 0.00
10:57 am 10:57 Mostly Cloudy 87 30.6 72 22.2 61 61 ENE 13 20 30.06 1018 10 16 0.00 0.00
11:18 am 11:18 Mostly Cloudy 86 30 72 22.2 63 63 ENE 15 24 30.07 1018 10 16 0.00 0.00
11:42 am 11:42 Mostly Cloudy 86 30 72 22.2 63 63 ENE 14 22 30.07 1018 10 16 0.00 0.00
11:57 am 11:57 Partly Cloudy 86 30 73 22.8 65 65 ENE 15 24 30.05 1018 10 16 0.00 0.00
12:57 pm 12:57 Partly Cloudy 87 30.6 71 21.7 59 59 ENE 14 22 30.03 1017 10 16 0.00 0.00
1:57 pm 13:57 Partly Cloudy 88 31 72 22 59 59 ENE 13 20 30.03 1017 10 16 0.00 0.00
2:57 pm 14:57 Mostly Sunny 86 30 71 21.7 61 61 ENE 13 20 30.01 1016 10 16 0.00 0.00
3:57 pm 15:57 Mostly Cloudy 85 29.4 69 20.6 59 59 ENE 12 19 30.00 1016 10 16 0.00 0.00
5:57 pm 17:57 Mostly Cloudy 83 28.3 71 21.7 67 67 ENE 10 17 30.00 1016 10 16 0.00 0.00
6:57 pm 18:57 Mostly Cloudy 82 27.8 72 22.2 72 72 E 9 15 30.01 1016 10 16 0.00 0.00
7:57 pm 19:57 Cloudy 81 27.2 72 22.2 74 74 E 12 19 30.03 1017 10 16 0.00 0.00
8:57 pm 20:57 Mostly Cloudy 80 26.7 72 22.2 76 76 E 15 24 30.05 1018 10 16 0.00 0.00
9:57 pm 21:57 Mostly Cloudy 81 27.2 74 23.3 79 79 E 10 17 30.06 1018 10 16 0.00 0.00
10:19 pm 22:19 Mostly Cloudy with Light Rain 79 26.1 75 23.9 88 88 E 12 19 30.08 1019 7 11 0.01 0.13
10:29 pm 22:29 Cloudy 79 26.1 73 22.8 82 82 E 15 24 30.08 1019 10 16 0.01 0.13
10:57 pm 22:57 Cloudy 80 26.7 73 22.8 79 79 E 13 20 30.07 1018 10 16 0.01 0.13
11:57 pm 23:57 Cloudy 80 26.7 73 22.8 79 79 E 16 26 30.06 1018 10 16 0.01 0.13

Powered by Vaisala Xweather